This is the latest recevied weather packets stored in our database for station/object N3WXO-1. If no packets are shown the sender has not sent any weather packets the latest 10 day(s).
| Time | Temp. | Humidity | Pressure | Rain* | Wind** | Luminosity | Snow |
|---|---|---|---|---|---|---|---|
| 1777317026 | 23.33° C | 40% | 1022.7 hPa | 0 mm | - | 754 W/m² | - |
| 1777316722 | 23.33° C | 39% | 1022.9 hPa | 0 mm | - | 761 W/m² | - |
| 1777316437 | 23.33° C | 40% | 1022.9 hPa | 0 mm | - | 768 W/m² | - |
| 1777316118 | 23.33° C | 37% | 1022.9 hPa | 0 mm | - | 779 W/m² | - |
| 1777315835 | 23.33° C | 39% | 1022.7 hPa | 0 mm | - | 786 W/m² | - |
| 1777315530 | 23.33° C | 39% | 1022.7 hPa | 0 mm | - | 793 W/m² | - |
| 1777315226 | 23.33° C | 39% | 1022.9 hPa | 0 mm | - | 802 W/m² | - |
| 1777314923 | 23.33° C | 38% | 1022.8 hPa | 0 mm | - | 816 W/m² | - |
| 1777314619 | 23.33° C | 38% | 1022.8 hPa | 0 mm | - | 819 W/m² | - |
| 1777314336 | 22.78° C | 40% | 1022.8 hPa | 0 mm | - | 821 W/m² | - |
| 1777314032 | 23.33° C | 39% | 1022.7 hPa | 0 mm | - | 831 W/m² | - |
| 1777313733 | 23.33° C | 38% | 1022.7 hPa | 0 mm | - | 838 W/m² | - |
| 1777313428 | 23.33° C | 37% | 1022.8 hPa | 0 mm | - | 844 W/m² | - |
| 1777313123 | 23.33° C | 37% | 1023.1 hPa | 0 mm | - | 847 W/m² | - |
| 1777312819 | 23.33° C | 40% | 1023 hPa | 0 mm | - | 851 W/m² | - |
| 1777312535 | 22.78° C | 40% | 1023.2 hPa | 0 mm | - | 854 W/m² | - |
| 1777312232 | 22.22° C | 43% | 1023.2 hPa | 0 mm | - | 854 W/m² | - |
| 1777311928 | 22.22° C | 41% | 1023.4 hPa | 0 mm | - | 856 W/m² | - |
| 1777311628 | 22.78° C | 39% | 1023.4 hPa | 0 mm | - | 860 W/m² | - |
| 1777311326 | 22.22° C | 39% | 1023.3 hPa | 0 mm | - | 865 W/m² | - |
| 1777311021 | 22.22° C | 39% | 1023.5 hPa | 0 mm | - | 868 W/m² | - |
| 1777310737 | 22.22° C | 40% | 1023.7 hPa | 0 mm | - | 872 W/m² | - |
| 1777310433 | 22.22° C | 38% | 1023.7 hPa | 0 mm | - | 872 W/m² | - |
| 1777310129 | 21.67° C | 40% | 1023.6 hPa | 0 mm | - | 874 W/m² | - |
| 1777309825 | 21.67° C | 40% | 1023.8 hPa | 0 mm | - | 875 W/m² | - |
* Rain latest hour (hover to see other rain measurements)
** Current wind speed in m/s (hover to see current wind gust speed)